Regional Weather Roundup
Issued by NWS

Home | Current Version | Previous Version | Graphics & Text | Print | Product List | Glossary On
Versions: 1 2 3 4 5 6 7 8 9 10 11 12 13 14 15 16 17 18 19 20 21 22 23 24 25 26 27 28 29 30 31 32 33 34 35 36 37 38 39 40 41 42 43 44 45 46 47 48 49 50
000
ASUS43 KFSD 241102
RWRSD

WEATHER ROUNDUP FOR SOUTH DAKOTA
NATIONAL WEATHER SERVICE SIOUX FALLS SD
600 AM CDT SAT JUN 24 2017

NOTE: "FAIR" INDICATES FEW OR NO CLOUDS BELOW 12,000 FEET WITH NO
SIGNIFICANT WEATHER AND/OR OBSTRUCTIONS TO VISIBILITY.


SDZ001>005-009-010-012>017-241200-
NORTHWEST AND NORTH CENTRAL SOUTH DAKOTA

CITY           SKY/WX    TMP DP  RH WIND       PRES   REMARKS
BUFFALO          N/A     43  30  60 W10       30.15S
FAITH            N/A     47  32  56 W12       30.18S
MOBRIDGE       PTCLDY    50  37  61 NW9       30.10R
$$

SDZ012>016-024>037-041>051-057-063-072>074-241200-
SOUTHWEST AND SOUTH CENTRAL SOUTH DAKOTA

CITY           SKY/WX    TMP DP  RH WIND       PRES   REMARKS
RAPID CTY ARPT CLEAR     46  29  51 NW8       30.24S
PIERRE         PTCLDY    44  36  73 NW7       30.14R
CUSTER         CLEAR     42  23  46 W6        30.30S
ELLSWORTH AFB  MOCLDY    44  29  55 W7        30.23S
PHILIP         CLEAR     43  33  68 W8        30.18F
PINE RIDGE     CLEAR     36  33  89 CALM      30.26R
WINNER         FAIR      49  35  58 SW9       30.18S
$$

SDZ004>011-016>023-039-040-241200-
NORTHEAST SOUTH DAKOTA

CITY           SKY/WX    TMP DP  RH WIND       PRES   REMARKS
ABERDEEN       CLOUDY    49  42  77 W7        30.08R
WATERTOWN      PTCLDY    45  42  89 SW9       30.06S
BROOKINGS      CLEAR     45  40  82 SW3       30.09S
SISSETON         N/A     49  41  74 NW6       30.05R
$$

SDZ017-020-022-023-036>040-048>070-241200-
SOUTHEAST SOUTH DAKOTA

CITY           SKY/WX    TMP DP  RH WIND       PRES   REMARKS
SIOUX FALLS    CLEAR     45  41  86 CALM      30.11S
HURON          PTCLDY    47  40  76 SW9       30.11R
CHAMBERLAIN    PTCLDY    47  40  75 SW6       30.15R
MITCHELL       CLEAR     47  40  76 W3        30.13R
YANKTON        CLEAR     49  39  68 W7        30.14S
$$

ABBREVIATIONS USED IN REMARKS
   TC - TEMPERATURE IN CELSIUS
  WCI - WIND CHILL INDEX
   HX - HEAT INDEX
  VSB - VISIBILITY




USA.gov is the U.S. government's official web portal to all federal, state and local government web resources and services.